This is the latest recevied weather packets stored in our database for station/object NI4CE-14. If no packets are shown the sender has not sent any weather packets the latest 10 day(s).
| Time | Temp. | Humidity | Pressure | Rain* | Wind** | Luminosity | Snow |
|---|---|---|---|---|---|---|---|
| 1777831999 | 29.44° C | 100% | 1015.5 hPa | 0 mm | - | - | - |
| 1777831464 | 29.44° C | 100% | 1015.5 hPa | 0 mm | - | - | - |
| 1777829599 | 28.89° C | 100% | 1015.6 hPa | 0 mm | - | - | - |
| 1777829299 | 28.33° C | 100% | 1015.6 hPa | 0 mm | - | - | - |
| 1777828099 | 27.78° C | 100% | 1016 hPa | 0 mm | - | - | - |
| 1777825699 | 27.78° C | 100% | 1016.6 hPa | 0 mm | - | - | - |
| 1777825399 | 27.78° C | 100% | 1016.6 hPa | 0 mm | - | - | - |
| 1777825099 | 27.78° C | 100% | 1016.5 hPa | 0 mm | - | - | - |
| 1777824499 | 27.78° C | 100% | 1016.4 hPa | 0 mm | - | - | - |
| 1777823899 | 27.22° C | 100% | 1016.5 hPa | 0 mm | - | - | - |
| 1777822307 | 26.67° C | 100% | 1016.5 hPa | 0 mm | - | - | - |
| 1777822099 | 26.67° C | 100% | 1016.5 hPa | 0 mm | - | - | - |
| 1777821499 | 26.11° C | 100% | 1016.7 hPa | 0 mm | - | - | - |
| 1777820299 | 25.56° C | 100% | 1016.8 hPa | 0 mm | - | - | - |
| 1777819099 | 25° C | 100% | 1016.6 hPa | 0 mm | - | - | - |
| 1777816783 | 25° C | 100% | 1016 hPa | 0 mm | - | - | - |
| 1777815199 | 25° C | 100% | 1015.8 hPa | 0 mm | - | - | - |
| 1777814899 | 25° C | 100% | 1015.8 hPa | 0 mm | - | - | - |
| 1777810699 | 23.33° C | 100% | 1015.4 hPa | 0 mm | - | - | - |
| 1777809698 | 23.33° C | 100% | 1015.1 hPa | 0 mm | - | - | - |
| 1777807699 | 23.33° C | 100% | 1015.1 hPa | 0 mm | - | - | - |
| 1777807099 | 23.33° C | 100% | 1015 hPa | 0 mm | - | - | - |
| 1777805537 | 23.33° C | 100% | 1014.7 hPa | 0 mm | - | - | - |
| 1777804699 | 23.33° C | 100% | 1014.7 hPa | 0 mm | - | - | - |
| 1777803967 | 23.33° C | 100% | 1014.4 hPa | 0 mm | - | - | - |
* Rain latest hour (hover to see other rain measurements)
** Current wind speed in m/s (hover to see current wind gust speed)